Time,TemperatureF,DewpointF,PressureIn,WindDirection,WindDirectionDegrees,WindSpeedMPH,WindSpeedGustMPH,Humidity,HourlyPrecipIn,Conditions,Clouds,dailyrainin,SoftwareType,DateUTC
2013-03-02 00:00:00,38.8,26.9,29.93,SW,222,0.0,0.0,62,0.00,,,0.00,Wunderground v.1.15,2013-03-02 05:00:00,
2013-03-02 00:05:00,38.7,27.2,29.92,SW,222,0.0,0.0,63,0.00,,,0.00,Wunderground v.1.15,2013-03-02 05:05:00,
2013-03-02 00:10:00,38.6,27.1,29.93,West,267,0.0,0.0,63,0.00,,,0.00,Wunderground v.1.15,2013-03-02 05:10:00,
2013-03-02 00:15:00,38.6,27.1,29.93,West,267,0.0,0.0,63,0.00,,,0.00,Wunderground v.1.15,2013-03-02 05:15:00,
2013-03-02 00:20:00,38.5,27.0,29.93,West,267,0.0,0.0,63,0.00,,,0.00,Wunderground v.1.15,2013-03-02 05:20:00,
2013-03-02 00:25:00,38.5,27.7,29.93,West,267,0.0,0.0,65,0.00,,,0.00,Wunderground v.1.15,2013-03-02 05:25:00,
2013-03-02 00:30:00,38.4,27.7,29.93,West,267,0.0,0.0,65,0.00,,,0.00,Wunderground v.1.15,2013-03-02 05:30:00,
2013-03-02 00:40:00,38.1,27.4,29.92,West,267,0.0,0.0,65,0.00,,,0.00,Wunderground v.1.15,2013-03-02 05:40:00,
2013-03-02 00:45:00,38.0,26.9,29.92,West,267,0.0,0.0,64,0.00,,,0.00,Wunderground v.1.15,2013-03-02 05:45:00,
2013-03-02 00:50:00,38.0,27.6,29.92,West,267,0.0,0.0,66,0.00,,,0.00,Wunderground v.1.15,2013-03-02 05:50:00,
2013-03-02 00:55:00,37.9,27.5,29.93,West,267,0.0,0.0,66,0.00,,,0.00,Wunderground v.1.15,2013-03-02 05:55:00,
2013-03-02 01:00:00,37.8,27.5,29.93,West,267,0.0,0.0,66,0.00,,,0.00,Wunderground v.1.15,2013-03-02 06:00:00,
2013-03-02 01:05:00,37.7,27.7,29.93,West,267,0.0,0.0,67,0.00,,,0.00,Wunderground v.1.15,2013-03-02 06:05:00,
2013-03-02 01:10:00,37.5,27.5,29.93,West,267,0.0,0.0,67,0.00,,,0.00,Wunderground v.1.15,2013-03-02 06:10:00,
2013-03-02 01:15:00,37.4,27.8,29.93,West,267,0.0,0.0,68,0.00,,,0.00,Wunderground v.1.15,2013-03-02 06:15:00,
2013-03-02 01:20:00,37.4,27.8,29.93,West,267,0.0,0.0,68,0.00,,,0.00,Wunderground v.1.15,2013-03-02 06:20:00,
2013-03-02 01:25:00,37.3,28.1,29.93,West,267,0.0,0.0,69,0.00,,,0.00,Wunderground v.1.15,2013-03-02 06:25:00,
2013-03-02 01:30:00,37.3,27.3,29.93,West,267,0.0,0.0,67,0.00,,,0.00,Wunderground v.1.15,2013-03-02 06:30:00,
2013-03-02 01:35:00,37.2,27.6,29.94,West,267,0.0,0.0,68,0.00,,,0.00,Wunderground v.1.15,2013-03-02 06:35:00,
2013-03-02 01:40:00,37.2,28.0,29.94,West,267,0.0,0.0,69,0.00,,,0.00,Wunderground v.1.15,2013-03-02 06:40:00,
2013-03-02 01:45:00,37.1,27.9,29.94,West,267,0.0,0.0,69,0.00,,,0.00,Wunderground v.1.15,2013-03-02 06:45:00,
2013-03-02 01:50:00,37.0,27.8,29.94,West,267,0.0,0.0,69,0.00,,,0.00,Wunderground v.1.15,2013-03-02 06:50:00,
2013-03-02 01:55:00,37.0,28.5,29.94,West,267,0.0,0.0,71,0.00,,,0.00,Wunderground v.1.15,2013-03-02 06:55:00,
2013-03-02 02:00:00,36.8,27.9,29.94,West,267,0.0,0.0,70,0.00,,,0.00,Wunderground v.1.15,2013-03-02 07:00:00,
2013-03-02 02:05:00,36.8,28.3,29.94,West,267,0.0,0.0,71,0.00,,,0.00,Wunderground v.1.15,2013-03-02 07:05:00,
2013-03-02 02:10:00,36.7,28.2,29.94,West,267,0.0,0.0,71,0.00,,,0.00,Wunderground v.1.15,2013-03-02 07:10:00,
2013-03-02 02:15:00,36.6,28.4,29.93,West,267,0.0,0.0,72,0.00,,,0.00,Wunderground v.1.15,2013-03-02 07:15:00,
2013-03-02 02:20:00,36.6,28.4,29.93,West,267,0.0,0.0,72,0.00,,,0.00,Wunderground v.1.15,2013-03-02 07:20:00,
2013-03-02 02:25:00,36.5,28.7,29.93,West,267,0.0,0.0,73,0.00,,,0.00,Wunderground v.1.15,2013-03-02 07:25:00,
2013-03-02 02:30:00,36.5,28.7,29.93,West,267,0.0,0.0,73,0.00,,,0.00,Wunderground v.1.15,2013-03-02 07:30:00,
2013-03-02 02:35:00,36.4,28.9,29.93,West,267,0.0,0.0,74,0.00,,,0.00,Wunderground v.1.15,2013-03-02 07:35:00,
2013-03-02 02:40:00,36.4,29.2,29.92,West,267,0.0,0.0,75,0.00,,,0.00,Wunderground v.1.15,2013-03-02 07:40:00,
2013-03-02 02:45:00,36.3,29.1,29.92,West,267,0.0,0.0,75,0.00,,,0.00,Wunderground v.1.15,2013-03-02 07:45:00,
2013-03-02 02:50:00,36.3,28.8,29.92,West,267,0.0,0.0,74,0.00,,,0.00,Wunderground v.1.15,2013-03-02 07:50:00,
2013-03-02 02:55:00,36.2,28.7,29.92,West,267,0.0,0.0,74,0.00,,,0.00,Wunderground v.1.15,2013-03-02 07:55:00,
2013-03-02 03:00:00,36.2,28.0,29.92,West,267,0.0,0.0,72,0.00,,,0.00,Wunderground v.1.15,2013-03-02 08:00:00,
2013-03-02 03:05:00,36.2,28.0,29.92,West,267,0.0,0.0,72,0.00,,,0.00,Wunderground v.1.15,2013-03-02 08:05:00,
2013-03-02 03:10:00,36.2,27.7,29.92,West,267,0.0,0.0,71,0.00,,,0.00,Wunderground v.1.15,2013-03-02 08:10:00,
2013-03-02 03:20:00,36.2,28.0,29.92,West,267,0.0,0.0,72,0.00,,,0.00,Wunderground v.1.15,2013-03-02 08:20:00,
2013-03-02 03:25:00,36.1,28.6,29.92,West,267,0.0,0.0,74,0.00,,,0.00,Wunderground v.1.15,2013-03-02 08:25:00,
2013-03-02 03:30:00,36.1,28.6,29.92,West,267,0.0,0.0,74,0.00,,,0.00,Wunderground v.1.15,2013-03-02 08:30:00,
2013-03-02 03:35:00,36.1,28.6,29.92,West,267,0.0,0.0,74,0.00,,,0.00,Wunderground v.1.15,2013-03-02 08:35:00,
2013-03-02 03:40:00,36.1,28.6,29.92,West,267,0.0,0.0,74,0.00,,,0.00,Wunderground v.1.15,2013-03-02 08:40:00,
2013-03-02 03:45:00,36.0,28.2,29.91,West,267,0.0,0.0,73,0.00,,,0.00,Wunderground v.1.15,2013-03-02 08:45:00,
2013-03-02 03:50:00,36.0,27.5,29.91,West,267,0.0,0.0,71,0.00,,,0.00,Wunderground v.1.15,2013-03-02 08:50:00,
2013-03-02 03:55:00,36.1,27.9,29.91,West,267,0.0,0.0,72,0.00,,,0.00,Wunderground v.1.15,2013-03-02 08:55:00,
2013-03-02 04:00:00,36.1,27.6,29.91,West,267,0.0,0.0,71,0.00,,,0.00,Wunderground v.1.15,2013-03-02 09:00:00,
2013-03-02 04:05:00,36.2,27.7,29.91,West,267,0.0,0.0,71,0.00,,,0.00,Wunderground v.1.15,2013-03-02 09:05:00,
2013-03-02 04:10:00,36.2,28.0,29.91,West,267,0.0,0.0,72,0.00,,,0.00,Wunderground v.1.15,2013-03-02 09:10:00,
2013-03-02 04:15:00,36.2,28.4,29.91,West,267,0.0,0.0,73,0.00,,,0.00,Wunderground v.1.15,2013-03-02 09:15:00,
2013-03-02 04:20:00,36.2,27.7,29.91,West,267,0.0,0.0,71,0.00,,,0.00,Wunderground v.1.15,2013-03-02 09:20:00,
2013-03-02 04:30:00,36.1,27.3,29.91,West,267,0.0,0.0,70,0.00,,,0.00,Wunderground v.1.15,2013-03-02 09:30:00,
2013-03-02 04:35:00,36.0,27.8,29.91,West,267,0.0,0.0,72,0.00,,,0.00,Wunderground v.1.15,2013-03-02 09:35:00,
2013-03-02 04:40:00,35.9,27.4,29.91,West,267,0.0,0.0,71,0.00,,,0.00,Wunderground v.1.15,2013-03-02 09:40:00,
2013-03-02 04:45:00,35.6,26.8,29.91,West,267,0.0,0.0,70,0.00,,,0.00,Wunderground v.1.15,2013-03-02 09:45:00,
2013-03-02 04:50:00,35.4,26.9,29.91,West,267,0.0,0.0,71,0.00,,,0.00,Wunderground v.1.15,2013-03-02 09:50:00,
2013-03-02 04:55:00,35.1,27.0,29.91,West,267,0.0,0.0,72,0.00,,,0.00,Wunderground v.1.15,2013-03-02 09:55:00,
2013-03-02 05:00:00,34.8,26.7,29.91,West,267,0.0,0.0,72,0.00,,,0.00,Wunderground v.1.15,2013-03-02 10:00:00,
2013-03-02 05:05:00,34.5,26.7,29.91,West,267,0.0,0.0,73,0.00,,,0.00,Wunderground v.1.15,2013-03-02 10:05:00,
2013-03-02 05:10:00,34.2,26.4,29.91,West,267,0.0,0.0,73,0.00,,,0.00,Wunderground v.1.15,2013-03-02 10:10:00,
2013-03-02 05:15:00,33.9,26.5,29.91,West,267,0.0,0.0,74,0.00,,,0.00,Wunderground v.1.15,2013-03-02 10:15:00,
2013-03-02 05:20:00,33.6,26.2,29.91,West,267,0.0,0.0,74,0.00,,,0.00,Wunderground v.1.15,2013-03-02 10:20:00,
2013-03-02 05:25:00,33.3,26.2,29.90,West,267,0.0,0.0,75,0.00,,,0.00,Wunderground v.1.15,2013-03-02 10:25:00,
2013-03-02 05:30:00,32.9,26.2,29.90,West,267,0.0,0.0,76,0.00,,,0.00,Wunderground v.1.15,2013-03-02 10:30:00,
2013-03-02 05:45:00,32.1,26.0,29.90,West,267,0.0,0.0,78,0.00,,,0.00,Wunderground v.1.15,2013-03-02 10:45:00,
2013-03-02 05:50:00,31.9,25.8,29.90,West,267,0.0,0.0,78,0.00,,,0.00,Wunderground v.1.15,2013-03-02 10:50:00,
2013-03-02 05:55:00,31.7,25.6,29.90,West,267,0.0,0.0,78,0.00,,,0.00,Wunderground v.1.15,2013-03-02 10:55:00,
2013-03-02 06:00:00,31.4,25.6,29.90,West,267,0.0,0.0,79,0.00,,,0.00,Wunderground v.1.15,2013-03-02 11:00:00,
2013-03-02 06:05:00,31.2,25.4,29.90,West,267,0.0,0.0,79,0.00,,,0.00,Wunderground v.1.15,2013-03-02 11:05:00,
2013-03-02 06:10:00,30.9,25.2,29.91,West,267,0.0,0.0,79,0.00,,,0.00,Wunderground v.1.15,2013-03-02 11:10:00,
2013-03-02 06:20:00,30.5,25.4,29.90,West,267,0.0,0.0,81,0.00,,,0.00,Wunderground v.1.15,2013-03-02 11:20:00,
2013-03-02 06:25:00,30.3,25.2,29.90,West,267,0.0,0.0,81,0.00,,,0.00,Wunderground v.1.15,2013-03-02 11:25:00,
2013-03-02 06:30:00,30.1,25.3,29.90,West,267,0.0,0.0,82,0.00,,,0.00,Wunderground v.1.15,2013-03-02 11:30:00,
2013-03-02 06:35:00,30.1,25.6,29.91,West,267,0.0,0.0,83,0.00,,,0.00,Wunderground v.1.15,2013-03-02 11:35:00,
2013-03-02 06:40:00,30.0,25.5,29.91,West,267,0.0,0.0,83,0.00,,,0.00,Wunderground v.1.15,2013-03-02 11:40:00,
2013-03-02 06:45:00,30.0,25.5,29.91,West,267,0.0,0.0,83,0.00,,,0.00,Wunderground v.1.15,2013-03-02 11:45:00,
2013-03-02 06:50:00,29.9,25.4,29.91,West,267,0.0,0.0,83,0.00,,,0.00,Wunderground v.1.15,2013-03-02 11:50:00,
2013-03-02 06:55:00,29.8,25.3,29.91,West,267,0.0,0.0,83,0.00,,,0.00,Wunderground v.1.15,2013-03-02 11:55:00,
2013-03-02 07:00:00,29.8,25.6,29.91,West,267,0.0,0.0,84,0.00,,,0.00,Wunderground v.1.15,2013-03-02 12:00:00,
2013-03-02 07:05:00,29.7,25.7,29.92,West,267,0.0,0.0,85,0.00,,,0.00,Wunderground v.1.15,2013-03-02 12:05:00,
2013-03-02 07:10:00,29.8,25.8,29.91,West,267,0.0,0.0,85,0.00,,,0.00,Wunderground v.1.15,2013-03-02 12:10:00,
2013-03-02 07:15:00,29.8,25.8,29.92,West,267,0.0,0.0,85,0.00,,,0.00,Wunderground v.1.15,2013-03-02 12:15:00,
2013-03-02 07:20:00,29.8,25.6,29.92,West,267,0.0,0.0,84,0.00,,,0.00,Wunderground v.1.15,2013-03-02 12:20:00,
2013-03-02 07:25:00,29.9,25.9,29.92,West,267,0.0,0.0,85,0.00,,,0.00,Wunderground v.1.15,2013-03-02 12:25:00,
2013-03-02 07:30:00,30.0,26.0,29.92,West,267,0.0,0.0,85,0.00,,,0.00,Wunderground v.1.15,2013-03-02 12:30:00,
2013-03-02 07:35:00,30.1,26.1,29.92,West,267,0.0,0.0,85,0.00,,,0.00,Wunderground v.1.15,2013-03-02 12:35:00,
2013-03-02 07:40:00,30.3,26.6,29.92,West,267,0.0,0.0,86,0.00,,,0.00,Wunderground v.1.15,2013-03-02 12:40:00,
2013-03-02 07:45:00,30.7,27.0,29.92,West,267,0.0,0.0,86,0.00,,,0.00,Wunderground v.1.15,2013-03-02 12:45:00,
2013-03-02 07:50:00,31.1,27.4,29.92,West,267,0.0,0.0,86,0.00,,,0.00,Wunderground v.1.15,2013-03-02 12:50:00,
2013-03-02 08:00:00,31.9,27.9,29.93,West,267,0.0,0.0,85,0.00,,,0.00,Wunderground v.1.15,2013-03-02 13:00:00,
2013-03-02 08:10:00,32.8,29.1,29.92,West,267,0.0,0.0,86,0.00,,,0.00,Wunderground v.1.15,2013-03-02 13:10:00,
2013-03-02 08:15:00,33.3,29.3,29.93,West,267,0.0,0.0,85,0.00,,,0.00,Wunderground v.1.15,2013-03-02 13:15:00,
2013-03-02 08:20:00,33.8,29.5,29.93,West,267,0.0,0.0,84,0.00,,,0.00,Wunderground v.1.15,2013-03-02 13:20:00,
2013-03-02 08:25:00,34.3,29.4,29.93,West,267,0.0,0.0,82,0.00,,,0.00,Wunderground v.1.15,2013-03-02 13:25:00,
2013-03-02 08:30:00,34.9,29.7,29.93,West,267,0.0,0.0,81,0.00,,,0.00,Wunderground v.1.15,2013-03-02 13:30:00,
2013-03-02 08:35:00,35.3,29.4,29.93,West,267,0.0,0.0,79,0.00,,,0.00,Wunderground v.1.15,2013-03-02 13:35:00,
2013-03-02 08:40:00,35.7,28.9,29.93,West,267,0.0,0.0,76,0.00,,,0.00,Wunderground v.1.15,2013-03-02 13:40:00,
2013-03-02 08:45:00,36.1,28.9,29.93,West,267,0.0,0.0,75,0.00,,,0.00,Wunderground v.1.15,2013-03-02 13:45:00,
2013-03-02 08:50:00,36.5,29.0,29.93,West,267,0.0,0.0,74,0.00,,,0.00,Wunderground v.1.15,2013-03-02 13:50:00,
2013-03-02 08:55:00,36.8,29.0,29.93,West,267,0.0,0.0,73,0.00,,,0.00,Wunderground v.1.15,2013-03-02 13:55:00,
2013-03-02 09:00:00,37.2,28.7,29.92,West,267,0.0,0.0,71,0.00,,,0.00,Wunderground v.1.15,2013-03-02 14:00:00,
2013-03-02 09:05:00,37.5,28.2,29.92,West,271,0.0,0.0,69,0.00,,,0.00,Wunderground v.1.15,2013-03-02 14:05:00,
2013-03-02 09:10:00,37.7,27.7,29.92,West,271,0.0,0.0,67,0.00,,,0.00,Wunderground v.1.15,2013-03-02 14:10:00,
2013-03-02 09:15:00,38.0,27.3,29.92,NE,34,0.0,1.0,65,0.00,,,0.00,Wunderground v.1.15,2013-03-02 14:15:00,
2013-03-02 09:20:00,38.2,27.1,29.92,NNW,339,0.0,0.0,64,0.00,,,0.00,Wunderground v.1.15,2013-03-02 14:20:00,
2013-03-02 09:25:00,38.4,26.5,29.92,NW,306,0.0,0.0,62,0.00,,,0.00,Wunderground v.1.15,2013-03-02 14:25:00,
2013-03-02 09:30:00,38.6,26.7,29.92,ENE,76,0.0,2.0,62,0.00,,,0.00,Wunderground v.1.15,2013-03-02 14:30:00,
2013-03-02 09:35:00,38.8,25.7,29.92,North,360,1.0,2.0,59,0.00,,,0.00,Wunderground v.1.15,2013-03-02 14:35:00,
2013-03-02 09:40:00,38.9,26.6,29.92,West,273,1.0,2.0,61,0.00,,,0.00,Wunderground v.1.15,2013-03-02 14:40:00,
2013-03-02 09:50:00,39.3,26.2,29.91,NNW,334,1.0,1.0,59,0.00,,,0.00,Wunderground v.1.15,2013-03-02 14:50:00,
2013-03-02 09:55:00,39.4,25.8,29.91,NE,39,1.0,1.0,58,0.00,,,0.00,Wunderground v.1.15,2013-03-02 14:55:00,
2013-03-02 10:00:00,39.6,26.8,29.91,NW,313,1.0,2.0,60,0.00,,,0.00,Wunderground v.1.15,2013-03-02 15:00:00,
2013-03-02 10:05:00,39.9,26.7,29.91,NW,309,1.0,2.0,59,0.00,,,0.00,Wunderground v.1.15,2013-03-02 15:05:00,
2013-03-02 10:10:00,40.2,26.6,29.91,NE,53,1.0,1.0,58,0.00,,,0.00,Wunderground v.1.15,2013-03-02 15:10:00,
2013-03-02 10:15:00,40.6,26.5,29.91,ESE,114,1.0,1.0,57,0.00,,,0.00,Wunderground v.1.15,2013-03-02 15:15:00,
2013-03-02 10:20:00,40.8,27.2,29.91,SSW,210,1.0,1.0,58,0.00,,,0.00,Wunderground v.1.15,2013-03-02 15:20:00,
2013-03-02 10:25:00,40.9,26.4,29.91,WSW,247,0.0,2.0,56,0.00,,,0.00,Wunderground v.1.15,2013-03-02 15:25:00,
2013-03-02 10:30:00,40.6,26.1,29.91,NNE,28,1.0,1.0,56,0.00,,,0.00,Wunderground v.1.15,2013-03-02 15:30:00,
2013-03-02 10:35:00,41.1,27.4,29.91,WNW,293,1.0,3.0,58,0.00,,,0.00,Wunderground v.1.15,2013-03-02 15:35:00,
2013-03-02 10:40:00,41.7,26.7,29.90,NW,312,1.0,1.0,55,0.00,,,0.00,Wunderground v.1.15,2013-03-02 15:40:00,
2013-03-02 10:45:00,41.9,26.0,29.90,WNW,291,1.0,1.0,53,0.00,,,0.00,Wunderground v.1.15,2013-03-02 15:45:00,
2013-03-02 10:50:00,41.9,26.4,29.90,WNW,292,1.0,1.0,54,0.00,,,0.00,Wunderground v.1.15,2013-03-02 15:50:00,
2013-03-02 10:55:00,41.7,25.8,29.90,NW,305,2.0,3.0,53,0.00,,,0.00,Wunderground v.1.15,2013-03-02 15:55:00,
2013-03-02 11:00:00,42.0,26.5,29.90,NNW,329,2.0,2.0,54,0.00,,,0.00,Wunderground v.1.15,2013-03-02 16:00:00,
2013-03-02 11:05:00,42.7,27.2,29.90,West,267,2.0,2.0,54,0.00,,,0.00,Wunderground v.1.15,2013-03-02 16:05:00,
2013-03-02 11:10:00,43.2,26.7,29.90,WNW,300,2.0,2.0,52,0.00,,,0.00,Wunderground v.1.15,2013-03-02 16:10:00,
2013-03-02 11:15:00,43.1,25.7,29.89,WNW,303,2.0,2.0,50,0.00,,,0.00,Wunderground v.1.15,2013-03-02 16:15:00,
2013-03-02 11:20:00,43.4,26.9,29.90,West,273,1.0,1.0,52,0.00,,,0.00,Wunderground v.1.15,2013-03-02 16:20:00,
2013-03-02 11:25:00,43.3,26.4,29.90,NNE,18,1.0,1.0,51,0.00,,,0.00,Wunderground v.1.15,2013-03-02 16:25:00,
2013-03-02 11:30:00,43.3,25.9,29.90,NE,53,1.0,4.0,50,0.00,,,0.00,Wunderground v.1.15,2013-03-02 16:30:00,
2013-03-02 11:35:00,43.2,25.8,29.89,NE,48,2.0,4.0,50,0.00,,,0.00,Wunderground v.1.15,2013-03-02 16:35:00,
2013-03-02 11:40:00,43.8,26.3,29.89,WSW,238,1.0,1.0,50,0.00,,,0.00,Wunderground v.1.15,2013-03-02 16:40:00,
2013-03-02 11:50:00,44.3,27.3,29.89,NNE,12,1.0,4.0,51,0.00,,,0.00,Wunderground v.1.15,2013-03-02 16:50:00,
2013-03-02 11:55:00,44.0,26.0,29.89,NNW,331,1.0,4.0,49,0.00,,,0.00,Wunderground v.1.15,2013-03-02 16:55:00,
2013-03-02 12:00:00,43.7,25.8,29.89,NNW,333,1.0,1.0,49,0.00,,,0.00,Wunderground v.1.15,2013-03-02 17:00:00,
2013-03-02 12:05:00,43.6,26.6,29.88,WSW,241,0.0,2.0,51,0.00,,,0.00,Wunderground v.1.15,2013-03-02 17:05:00,
2013-03-02 12:10:00,43.4,25.5,29.88,WNW,290,1.0,1.0,49,0.00,,,0.00,Wunderground v.1.15,2013-03-02 17:10:00,
2013-03-02 12:15:00,43.1,25.7,29.88,WSW,245,1.0,2.0,50,0.00,,,0.00,Wunderground v.1.15,2013-03-02 17:15:00,
2013-03-02 12:20:00,43.6,26.6,29.88,West,273,1.0,1.0,51,0.00,,,0.00,Wunderground v.1.15,2013-03-02 17:20:00,
2013-03-02 12:25:00,43.9,26.9,29.88,WNW,288,1.0,1.0,51,0.00,,,0.00,Wunderground v.1.15,2013-03-02 17:25:00,
2013-03-02 12:30:00,44.2,26.7,29.88,NW,305,0.0,0.0,50,0.00,,,0.00,Wunderground v.1.15,2013-03-02 17:30:00,
2013-03-02 12:35:00,44.6,27.6,29.88,ESE,119,0.0,0.0,51,0.00,,,0.00,Wunderground v.1.15,2013-03-02 17:35:00,
2013-03-02 12:40:00,45.1,26.6,29.87,West,259,1.0,4.0,48,0.00,,,0.00,Wunderground v.1.15,2013-03-02 17:40:00,
2013-03-02 12:45:00,45.4,26.8,29.87,WSW,248,1.0,4.0,48,0.00,,,0.00,Wunderground v.1.15,2013-03-02 17:45:00,
2013-03-02 12:50:00,45.2,27.6,29.87,SW,217,1.0,1.0,50,0.00,,,0.00,Wunderground v.1.15,2013-03-02 17:50:00,
2013-03-02 12:55:00,45.0,26.5,29.87,SSW,202,1.0,1.0,48,0.00,,,0.00,Wunderground v.1.15,2013-03-02 17:55:00,
2013-03-02 13:00:00,44.8,26.3,29.86,NW,305,1.0,3.0,48,0.00,,,0.00,Wunderground v.1.15,2013-03-02 18:00:00,
2013-03-02 13:05:00,44.6,26.1,29.86,West,263,1.0,3.0,48,0.00,,,0.00,Wunderground v.1.15,2013-03-02 18:05:00,
2013-03-02 13:10:00,44.3,26.3,29.86,WNW,300,1.0,1.0,49,0.00,,,0.00,Wunderground v.1.15,2013-03-02 18:10:00,
2013-03-02 13:15:00,44.2,26.7,29.86,WNW,300,0.0,1.0,50,0.00,,,0.00,Wunderground v.1.15,2013-03-02 18:15:00,
2013-03-02 13:20:00,44.5,27.5,29.86,West,273,1.0,1.0,51,0.00,,,0.00,Wunderground v.1.15,2013-03-02 18:20:00,
2013-03-02 13:25:00,44.9,27.4,29.85,WSW,258,1.0,1.0,50,0.00,,,0.00,Wunderground v.1.15,2013-03-02 18:25:00,
2013-03-02 13:30:00,44.6,25.6,29.85,WNW,288,1.0,1.0,47,0.00,,,0.00,Wunderground v.1.15,2013-03-02 18:30:00,
2013-03-02 13:35:00,44.4,26.4,29.85,West,271,1.0,1.0,49,0.00,,,0.00,Wunderground v.1.15,2013-03-02 18:35:00,
2013-03-02 13:40:00,44.5,26.5,29.85,West,271,1.0,1.0,49,0.00,,,0.00,Wunderground v.1.15,2013-03-02 18:40:00,
2013-03-02 13:45:00,44.7,26.7,29.85,West,271,1.0,1.0,49,0.00,,,0.00,Wunderground v.1.15,2013-03-02 18:45:00,
2013-03-02 13:50:00,44.7,26.2,29.85,NW,313,1.0,1.0,48,0.00,,,0.00,Wunderground v.1.15,2013-03-02 18:50:00,
2013-03-02 13:55:00,44.8,26.8,29.85,WSW,243,1.0,1.0,49,0.00,,,0.00,Wunderground v.1.15,2013-03-02 18:55:00,
2013-03-02 14:00:00,44.8,26.8,29.84,NNW,331,1.0,1.0,49,0.00,,,0.00,Wunderground v.1.15,2013-03-02 19:00:00,
2013-03-02 14:05:00,44.7,27.2,29.85,NW,312,1.0,3.0,50,0.00,,,0.00,Wunderground v.1.15,2013-03-02 19:05:00,
2013-03-02 14:10:00,44.6,26.6,29.84,WNW,286,1.0,2.0,49,0.00,,,0.00,Wunderground v.1.15,2013-03-02 19:10:00,
2013-03-02 14:15:00,44.5,26.5,29.84,NW,306,1.0,2.0,49,0.00,,,0.00,Wunderground v.1.15,2013-03-02 19:15:00,
2013-03-02 14:20:00,44.4,26.4,29.85,West,281,1.0,4.0,49,0.00,,,0.00,Wunderground v.1.15,2013-03-02 19:20:00,
2013-03-02 14:30:00,43.9,26.4,29.84,WNW,285,1.0,1.0,50,0.00,,,0.00,Wunderground v.1.15,2013-03-02 19:30:00,
2013-03-02 14:40:00,44.2,27.7,29.84,WNW,288,1.0,3.0,52,0.00,,,0.00,Wunderground v.1.15,2013-03-02 19:40:00,
2013-03-02 14:50:00,44.1,26.6,29.84,WSW,256,0.0,0.0,50,0.00,,,0.00,Wunderground v.1.15,2013-03-02 19:50:00,
2013-03-02 14:55:00,44.2,27.2,29.84,North,350,0.0,1.0,51,0.00,,,0.00,Wunderground v.1.15,2013-03-02 19:55:00,
2013-03-02 15:05:00,44.4,26.9,29.84,NW,323,0.0,0.0,50,0.00,,,0.00,Wunderground v.1.15,2013-03-02 20:05:00,
2013-03-02 15:10:00,44.6,26.1,29.84,WSW,253,1.0,1.0,48,0.00,,,0.00,Wunderground v.1.15,2013-03-02 20:10:00,
2013-03-02 15:15:00,44.4,26.4,29.84,WNW,302,1.0,3.0,49,0.00,,,0.00,Wunderground v.1.15,2013-03-02 20:15:00,
2013-03-02 15:20:00,44.5,27.5,29.84,West,278,1.0,1.0,51,0.00,,,0.00,Wunderground v.1.15,2013-03-02 20:20:00,
2013-03-02 15:25:00,44.4,26.4,29.84,WNW,287,2.0,2.0,49,0.00,,,0.00,Wunderground v.1.15,2013-03-02 20:25:00,
2013-03-02 15:30:00,44.3,26.3,29.84,North,355,1.0,4.0,49,0.00,,,0.00,Wunderground v.1.15,2013-03-02 20:30:00,
2013-03-02 15:35:00,44.1,27.1,29.84,NNW,327,1.0,4.0,51,0.00,,,0.00,Wunderground v.1.15,2013-03-02 20:35:00,
2013-03-02 15:40:00,43.9,26.9,29.84,West,267,0.0,0.0,51,0.00,,,0.00,Wunderground v.1.15,2013-03-02 20:40:00,
2013-03-02 15:50:00,43.7,26.7,29.84,WNW,286,0.0,0.0,51,0.00,,,0.00,Wunderground v.1.15,2013-03-02 20:50:00,
2013-03-02 15:55:00,43.8,26.3,29.84,West,273,0.0,2.0,50,0.00,,,0.00,Wunderground v.1.15,2013-03-02 20:55:00,
2013-03-02 16:00:00,43.8,26.3,29.84,WNW,283,0.0,0.0,50,0.00,,,0.00,Wunderground v.1.15,2013-03-02 21:00:00,
2013-03-02 16:05:00,43.7,27.2,29.84,NE,36,0.0,0.0,52,0.00,,,0.00,Wunderground v.1.15,2013-03-02 21:05:00,
2013-03-02 16:10:00,43.6,27.1,29.85,NNW,333,0.0,0.0,52,0.00,,,0.00,Wunderground v.1.15,2013-03-02 21:10:00,
2013-03-02 16:15:00,43.4,26.9,29.85,WSW,242,0.0,0.0,52,0.00,,,0.00,Wunderground v.1.15,2013-03-02 21:15:00,
2013-03-02 16:20:00,43.2,26.3,29.84,NW,310,0.0,0.0,51,0.00,,,0.00,Wunderground v.1.15,2013-03-02 21:20:00,
2013-03-02 16:25:00,43.1,27.1,29.85,NW,315,1.0,1.0,53,0.00,,,0.00,Wunderground v.1.15,2013-03-02 21:25:00,
2013-03-02 16:30:00,43.1,27.1,29.85,NW,304,0.0,0.0,53,0.00,,,0.00,Wunderground v.1.15,2013-03-02 21:30:00,
2013-03-02 16:35:00,43.1,26.7,29.85,North,349,1.0,1.0,52,0.00,,,0.00,Wunderground v.1.15,2013-03-02 21:35:00,
2013-03-02 16:40:00,43.0,26.6,29.85,WNW,284,0.0,0.0,52,0.00,,,0.00,Wunderground v.1.15,2013-03-02 21:40:00,
2013-03-02 16:45:00,42.9,26.5,29.85,WNW,297,0.0,1.0,52,0.00,,,0.00,Wunderground v.1.15,2013-03-02 21:45:00,
2013-03-02 16:50:00,42.9,26.5,29.85,ENE,58,0.0,0.0,52,0.00,,,0.00,Wunderground v.1.15,2013-03-02 21:50:00,
2013-03-02 16:55:00,42.8,26.8,29.85,ENE,58,0.0,0.0,53,0.00,,,0.00,Wunderground v.1.15,2013-03-02 21:55:00,
2013-03-02 17:00:00,42.9,26.9,29.85,ENE,77,0.0,0.0,53,0.00,,,0.00,Wunderground v.1.15,2013-03-02 22:00:00,
2013-03-02 17:05:00,42.8,27.3,29.85,NNW,329,0.0,0.0,54,0.00,,,0.00,Wunderground v.1.15,2013-03-02 22:05:00,
2013-03-02 17:10:00,42.7,27.2,29.85,NW,311,0.0,4.0,54,0.00,,,0.00,Wunderground v.1.15,2013-03-02 22:10:00,
2013-03-02 17:20:00,42.4,26.9,29.85,NW,304,0.0,0.0,54,0.00,,,0.00,Wunderground v.1.15,2013-03-02 22:20:00,
2013-03-02 17:25:00,42.1,26.6,29.86,West,272,0.0,0.0,54,0.00,,,0.00,Wunderground v.1.15,2013-03-02 22:25:00,
2013-03-02 17:30:00,41.9,26.9,29.86,NNE,13,0.0,0.0,55,0.00,,,0.00,Wunderground v.1.15,2013-03-02 22:30:00,
2013-03-02 17:35:00,41.8,26.8,29.86,WNW,300,0.0,0.0,55,0.00,,,0.00,Wunderground v.1.15,2013-03-02 22:35:00,
2013-03-02 17:40:00,41.7,26.7,29.86,WSW,253,0.0,0.0,55,0.00,,,0.00,Wunderground v.1.15,2013-03-02 22:40:00,
2013-03-02 17:45:00,41.6,26.2,29.86,NW,311,1.0,1.0,54,0.00,,,0.00,Wunderground v.1.15,2013-03-02 22:45:00,
2013-03-02 17:50:00,41.5,26.1,29.87,WNW,298,1.0,1.0,54,0.00,,,0.00,Wunderground v.1.15,2013-03-02 22:50:00,
2013-03-02 17:55:00,41.3,25.4,29.87,WNW,289,1.0,1.0,53,0.00,,,0.00,Wunderground v.1.15,2013-03-02 22:55:00,
2013-03-02 18:00:00,41.1,25.3,29.88,WNW,301,1.0,1.0,53,0.00,,,0.00,Wunderground v.1.15,2013-03-02 23:00:00,
2013-03-02 18:10:00,40.6,25.2,29.88,NW,315,0.0,0.0,54,0.00,,,0.00,Wunderground v.1.15,2013-03-02 23:10:00,
2013-03-02 18:15:00,40.3,25.0,29.88,SSW,203,0.0,0.0,54,0.00,,,0.00,Wunderground v.1.15,2013-03-02 23:15:00,
2013-03-02 18:20:00,40.0,24.7,29.89,WNW,300,0.0,0.0,54,0.00,,,0.00,Wunderground v.1.15,2013-03-02 23:20:00,
2013-03-02 18:25:00,39.8,25.4,29.89,WNW,299,0.0,0.0,56,0.00,,,0.00,Wunderground v.1.15,2013-03-02 23:25:00,
2013-03-02 18:30:00,39.6,24.7,29.89,WNW,299,0.0,0.0,55,0.00,,,0.00,Wunderground v.1.15,2013-03-02 23:30:00,
2013-03-02 18:35:00,39.5,25.1,29.89,SW,226,0.0,0.0,56,0.00,,,0.00,Wunderground v.1.15,2013-03-02 23:35:00,
2013-03-02 18:40:00,39.3,25.3,29.89,West,263,0.0,0.0,57,0.00,,,0.00,Wunderground v.1.15,2013-03-02 23:40:00,
2013-03-02 18:50:00,39.0,25.5,29.90,NW,321,1.0,1.0,58,0.00,,,0.00,Wunderground v.1.15,2013-03-02 23:50:00,
2013-03-02 18:55:00,38.9,24.9,29.90,NW,305,0.0,1.0,57,0.00,,,0.00,Wunderground v.1.15,2013-03-02 23:55:00,
2013-03-02 19:00:00,38.7,24.8,29.90,NW,309,0.0,2.0,57,0.00,,,0.00,Wunderground v.1.15,2013-03-03 00:00:00,
2013-03-02 19:10:00,38.0,24.1,29.91,NW,314,0.0,0.0,57,0.00,,,0.00,Wunderground v.1.15,2013-03-03 00:10:00,
2013-03-02 19:20:00,37.3,23.9,29.91,West,278,0.0,2.0,58,0.00,,,0.00,Wunderground v.1.15,2013-03-03 00:20:00,
2013-03-02 19:25:00,37.0,23.6,29.91,WSW,246,0.0,2.0,58,0.00,,,0.00,Wunderground v.1.15,2013-03-03 00:25:00,
2013-03-02 19:30:00,36.7,22.9,29.91,WSW,257,1.0,1.0,57,0.00,,,0.00,Wunderground v.1.15,2013-03-03 00:30:00,
2013-03-02 19:35:00,36.5,23.1,29.91,West,281,0.0,1.0,58,0.00,,,0.00,Wunderground v.1.15,2013-03-03 00:35:00,
2013-03-02 19:40:00,36.3,22.9,29.91,NW,319,0.0,0.0,58,0.00,,,0.00,Wunderground v.1.15,2013-03-03 00:40:00,
2013-03-02 19:45:00,36.1,22.7,29.91,WNW,286,1.0,1.0,58,0.00,,,0.00,Wunderground v.1.15,2013-03-03 00:45:00,
2013-03-02 19:50:00,36.1,22.3,29.91,WSW,245,1.0,1.0,57,0.00,,,0.00,Wunderground v.1.15,2013-03-03 00:50:00,
2013-03-02 19:55:00,35.9,22.5,29.92,SW,227,1.0,1.0,58,0.00,,,0.00,Wunderground v.1.15,2013-03-03 00:55:00,
2013-03-02 20:00:00,35.7,22.4,29.92,WNW,294,1.0,1.0,58,0.00,,,0.00,Wunderground v.1.15,2013-03-03 01:00:00,
2013-03-02 20:05:00,35.6,21.9,29.92,WNW,298,0.0,1.0,57,0.00,,,0.00,Wunderground v.1.15,2013-03-03 01:05:00,
2013-03-02 20:10:00,35.4,21.7,29.92,WNW,298,0.0,0.0,57,0.00,,,0.00,Wunderground v.1.15,2013-03-03 01:10:00,
2013-03-02 20:15:00,35.3,22.0,29.92,SW,232,0.0,0.0,58,0.00,,,0.00,Wunderground v.1.15,2013-03-03 01:15:00,
2013-03-02 20:20:00,35.0,22.1,29.92,WSW,248,0.0,0.0,59,0.00,,,0.00,Wunderground v.1.15,2013-03-03 01:20:00,
2013-03-02 20:30:00,34.6,22.1,29.92,SSW,211,0.0,0.0,60,0.00,,,0.00,Wunderground v.1.15,2013-03-03 01:30:00,
2013-03-02 20:35:00,34.4,21.9,29.93,SW,216,0.0,0.0,60,0.00,,,0.00,Wunderground v.1.15,2013-03-03 01:35:00,
2013-03-02 20:40:00,34.3,22.2,29.93,West,279,0.0,0.0,61,0.00,,,0.00,Wunderground v.1.15,2013-03-03 01:40:00,
2013-03-02 20:50:00,34.1,21.7,29.93,WSW,256,0.0,0.0,60,0.00,,,0.00,Wunderground v.1.15,2013-03-03 01:50:00,
2013-03-02 20:55:00,34.0,22.0,29.94,SW,223,0.0,0.0,61,0.00,,,0.00,Wunderground v.1.15,2013-03-03 01:55:00,
2013-03-02 21:00:00,33.8,21.8,29.94,ENE,65,0.0,0.0,61,0.00,,,0.00,Wunderground v.1.15,2013-03-03 02:00:00,
2013-03-02 21:05:00,33.6,21.6,29.94,West,261,0.0,0.0,61,0.00,,,0.00,Wunderground v.1.15,2013-03-03 02:05:00,
2013-03-02 21:10:00,33.4,21.8,29.94,West,261,0.0,0.0,62,0.00,,,0.00,Wunderground v.1.15,2013-03-03 02:10:00,
2013-03-02 21:15:00,33.2,21.2,29.94,WNW,296,0.0,0.0,61,0.00,,,0.00,Wunderground v.1.15,2013-03-03 02:15:00,
2013-03-02 21:20:00,33.1,21.5,29.94,West,264,0.0,0.0,62,0.00,,,0.00,Wunderground v.1.15,2013-03-03 02:20:00,
2013-03-02 21:25:00,32.9,21.7,29.94,SW,232,0.0,0.0,63,0.00,,,0.00,Wunderground v.1.15,2013-03-03 02:25:00,
2013-03-02 21:30:00,32.8,21.2,29.94,WSW,255,0.0,0.0,62,0.00,,,0.00,Wunderground v.1.15,2013-03-03 02:30:00,
2013-03-02 21:35:00,32.7,21.1,29.94,WSW,255,0.0,0.0,62,0.00,,,0.00,Wunderground v.1.15,2013-03-03 02:35:00,
2013-03-02 21:40:00,32.5,20.9,29.94,NNW,344,0.0,0.0,62,0.00,,,0.00,Wunderground v.1.15,2013-03-03 02:40:00,
2013-03-02 21:45:00,32.5,21.7,29.94,NNW,343,0.0,0.0,64,0.00,,,0.00,Wunderground v.1.15,2013-03-03 02:45:00,
2013-03-02 21:50:00,32.3,21.1,29.94,NNW,343,0.0,0.0,63,0.00,,,0.00,Wunderground v.1.15,2013-03-03 02:50:00,
2013-03-02 21:55:00,32.2,21.0,29.94,NNW,343,0.0,0.0,63,0.00,,,0.00,Wunderground v.1.15,2013-03-03 02:55:00,
2013-03-02 22:00:00,32.1,20.9,29.95,NNW,342,0.0,0.0,63,0.00,,,0.00,Wunderground v.1.15,2013-03-03 03:00:00,
2013-03-02 22:05:00,32.0,21.6,29.95,NNW,342,0.0,0.0,65,0.00,,,0.00,Wunderground v.1.15,2013-03-03 03:05:00,
2013-03-02 22:10:00,31.8,21.4,29.95,NNW,342,0.0,0.0,65,0.00,,,0.00,Wunderground v.1.15,2013-03-03 03:10:00,
2013-03-02 22:15:00,31.6,21.2,29.95,NNW,342,0.0,0.0,65,0.00,,,0.00,Wunderground v.1.15,2013-03-03 03:15:00,
2013-03-02 22:20:00,31.4,21.3,29.95,WSW,244,0.0,0.0,66,0.00,,,0.00,Wunderground v.1.15,2013-03-03 03:20:00,
2013-03-02 22:25:00,31.3,21.6,29.95,WSW,245,0.0,0.0,67,0.00,,,0.00,Wunderground v.1.15,2013-03-03 03:25:00,
2013-03-02 22:30:00,31.1,21.4,29.95,WSW,245,0.0,0.0,67,0.00,,,0.00,Wunderground v.1.15,2013-03-03 03:30:00,
2013-03-02 22:40:00,30.7,22.1,29.95,WSW,245,0.0,0.0,70,0.00,,,0.00,Wunderground v.1.15,2013-03-03 03:40:00,
2013-03-02 22:50:00,30.4,21.4,29.95,WSW,245,0.0,0.0,69,0.00,,,0.00,Wunderground v.1.15,2013-03-03 03:50:00,
2013-03-02 22:55:00,30.4,21.1,29.95,SSW,209,0.0,0.0,68,0.00,,,0.00,Wunderground v.1.15,2013-03-03 03:55:00,
2013-03-02 23:00:00,30.4,21.4,29.95,SSW,209,0.0,0.0,69,0.00,,,0.00,Wunderground v.1.15,2013-03-03 04:00:00,
2013-03-02 23:10:00,30.5,21.2,29.94,West,263,0.0,0.0,68,0.00,,,0.00,Wunderground v.1.15,2013-03-03 04:10:00,
2013-03-02 23:15:00,30.5,20.8,29.94,SW,236,0.0,0.0,67,0.00,,,0.00,Wunderground v.1.15,2013-03-03 04:15:00,
2013-03-02 23:20:00,30.5,20.8,29.94,SW,236,0.0,0.0,67,0.00,,,0.00,Wunderground v.1.15,2013-03-03 04:20:00,
2013-03-02 23:25:00,30.5,20.8,29.94,SW,236,0.0,0.0,67,0.00,,,0.00,Wunderground v.1.15,2013-03-03 04:25:00,
2013-03-02 23:30:00,30.5,20.8,29.94,SW,236,0.0,0.0,67,0.00,,,0.00,Wunderground v.1.15,2013-03-03 04:30:00,
2013-03-02 23:35:00,30.5,20.5,29.94,SW,236,0.0,0.0,66,0.00,,,0.00,Wunderground v.1.15,2013-03-03 04:35:00,
2013-03-02 23:40:00,30.4,20.7,29.94,SW,236,0.0,0.0,67,0.00,,,0.00,Wunderground v.1.15,2013-03-03 04:40:00,
2013-03-02 23:50:00,30.4,20.4,29.94,SW,236,0.0,0.0,66,0.00,,,0.00,Wunderground v.1.15,2013-03-03 04:50:00,
2013-03-02 23:55:00,30.5,20.1,29.94,WSW,240,0.0,0.0,65,0.00,,,0.00,Wunderground v.1.15,2013-03-03 04:55:00,